Time,TemperatureF,DewpointF,PressureIn,WindDirection,WindDirectionDegrees,WindSpeedMPH,WindSpeedGustMPH,Humidity,HourlyPrecipIn,Conditions,Clouds,dailyrainin,SoftwareType,DateUTC
2013-03-09 00:03:00,42.0,22.0,-100.00,WNW,290,7.0,15.0,44,-99.99,,,-99.99,,2013-03-09 05:03:00,
2013-03-09 00:12:00,42.0,21.0,-100.00,NW,305,7.0,16.0,43,-99.99,,,-99.99,,2013-03-09 05:12:00,
2013-03-09 00:22:00,42.0,21.0,-100.00,NW,305,7.0,16.0,43,-99.99,,,-99.99,,2013-03-09 05:22:00,
2013-03-09 00:32:00,42.0,21.0,-100.00,NW,310,7.0,15.0,43,-99.99,,,-99.99,,2013-03-09 05:32:00,
2013-03-09 00:43:00,42.0,21.0,-100.00,NW,310,7.0,15.0,43,-99.99,,,-99.99,,2013-03-09 05:43:00,
2013-03-09 00:52:00,42.0,21.0,-100.00,NW,310,7.0,15.0,43,-99.99,,,-99.99,,2013-03-09 05:52:00,
2013-03-09 01:02:00,41.0,20.0,-100.00,WNW,300,6.0,14.0,43,-99.99,,,-99.99,,2013-03-09 06:02:00,
2013-03-09 01:11:00,41.0,20.0,-100.00,NW,310,5.0,19.0,43,-99.99,,,-99.99,,2013-03-09 06:11:00,
2013-03-09 01:22:00,41.0,20.0,-100.00,NW,310,5.0,19.0,43,-99.99,,,-99.99,,2013-03-09 06:22:00,
2013-03-09 01:32:00,40.0,20.0,-100.00,NW,315,5.0,15.0,43,-99.99,,,-99.99,,2013-03-09 06:32:00,
2013-03-09 01:42:00,40.0,20.0,-100.00,WNW,300,4.0,10.0,44,-99.99,,,-99.99,,2013-03-09 06:42:00,
2013-03-09 01:51:00,40.0,20.0,-100.00,WNW,300,4.0,10.0,44,-99.99,,,-99.99,,2013-03-09 06:51:00,
2013-03-09 02:01:00,40.0,19.0,-100.00,WNW,285,4.0,10.0,44,-99.99,,,-99.99,,2013-03-09 07:01:00,
2013-03-09 02:11:00,39.0,19.0,-100.00,WSW,255,4.0,10.0,45,-99.99,,,-99.99,,2013-03-09 07:11:00,
2013-03-09 02:21:00,39.0,19.0,-100.00,WSW,255,4.0,10.0,45,-99.99,,,-99.99,,2013-03-09 07:21:00,
2013-03-09 02:32:00,39.0,19.0,-100.00,WNW,290,4.0,12.0,45,-99.99,,,-99.99,,2013-03-09 07:32:00,
2013-03-09 02:42:00,38.0,19.0,-100.00,West,275,4.0,12.0,46,-99.99,,,-99.99,,2013-03-09 07:42:00,
2013-03-09 02:52:00,38.0,19.0,-100.00,West,275,4.0,12.0,46,-99.99,,,-99.99,,2013-03-09 07:52:00,
2013-03-09 03:01:00,38.0,19.0,-100.00,WNW,300,4.0,11.0,46,-99.99,,,-99.99,,2013-03-09 08:01:00,
2013-03-09 03:11:00,38.0,19.0,-100.00,West,280,4.0,11.0,47,-99.99,,,-99.99,,2013-03-09 08:11:00,
2013-03-09 03:22:00,38.0,19.0,-100.00,West,280,4.0,11.0,47,-99.99,,,-99.99,,2013-03-09 08:22:00,
2013-03-09 03:32:00,38.0,19.0,-100.00,West,270,4.0,11.0,47,-99.99,,,-99.99,,2013-03-09 08:32:00,
2013-03-09 03:42:00,38.0,19.0,-100.00,West,275,6.0,14.0,47,-99.99,,,-99.99,,2013-03-09 08:42:00,
2013-03-09 03:52:00,38.0,19.0,-100.00,West,275,6.0,14.0,47,-99.99,,,-99.99,,2013-03-09 08:52:00,
2013-03-09 04:02:00,37.0,19.0,-100.00,WNW,285,6.0,13.0,48,-99.99,,,-99.99,,2013-03-09 09:02:00,
2013-03-09 04:12:00,37.0,19.0,-100.00,West,280,6.0,12.0,48,-99.99,,,-99.99,,2013-03-09 09:12:00,
2013-03-09 04:21:00,37.0,19.0,-100.00,West,280,6.0,12.0,48,-99.99,,,-99.99,,2013-03-09 09:21:00,
2013-03-09 04:32:00,37.0,19.0,-100.00,WNW,285,4.0,13.0,48,-99.99,,,-99.99,,2013-03-09 09:32:00,
2013-03-09 04:42:00,36.0,19.0,-100.00,WNW,300,4.0,13.0,48,-99.99,,,-99.99,,2013-03-09 09:42:00,
2013-03-09 04:52:00,36.0,19.0,-100.00,WNW,300,4.0,13.0,48,-99.99,,,-99.99,,2013-03-09 09:52:00,
2013-03-09 05:01:00,36.0,19.0,-100.00,WNW,290,4.0,9.0,49,-99.99,,,-99.99,,2013-03-09 10:01:00,
2013-03-09 05:11:00,36.0,18.0,-100.00,WNW,285,6.0,9.0,49,-99.99,,,-99.99,,2013-03-09 10:11:00,
2013-03-09 05:21:00,36.0,18.0,-100.00,WNW,285,6.0,9.0,49,-99.99,,,-99.99,,2013-03-09 10:21:00,
2013-03-09 05:32:00,36.0,19.0,-100.00,West,280,5.0,9.0,50,-99.99,,,-99.99,,2013-03-09 10:32:00,
2013-03-09 05:42:00,36.0,19.0,-100.00,West,270,6.0,9.0,50,-99.99,,,-99.99,,2013-03-09 10:42:00,
2013-03-09 05:52:00,36.0,19.0,-100.00,West,270,6.0,9.0,50,-99.99,,,-99.99,,2013-03-09 10:52:00,
2013-03-09 06:01:00,35.0,19.0,-100.00,SSE,155,2.0,7.0,51,-99.99,,,-99.99,,2013-03-09 11:01:00,
2013-03-09 06:11:00,35.0,19.0,-100.00,WNW,285,6.0,10.0,51,-99.99,,,-99.99,,2013-03-09 11:11:00,
2013-03-09 06:21:00,35.0,19.0,-100.00,WNW,285,6.0,10.0,51,-99.99,,,-99.99,,2013-03-09 11:21:00,
2013-03-09 06:32:00,35.0,19.0,-100.00,West,280,4.0,10.0,51,-99.99,,,-99.99,,2013-03-09 11:32:00,
2013-03-09 06:42:00,35.0,19.0,-100.00,WNW,290,3.0,11.0,51,-99.99,,,-99.99,,2013-03-09 11:42:00,
2013-03-09 06:52:00,35.0,19.0,-100.00,WNW,290,3.0,11.0,51,-99.99,,,-99.99,,2013-03-09 11:52:00,
2013-03-09 07:02:00,35.0,19.0,-100.00,WNW,290,5.0,9.0,51,-99.99,,,-99.99,,2013-03-09 12:02:00,
2013-03-09 07:11:00,35.0,19.0,-100.00,WNW,300,5.0,10.0,51,-99.99,,,-99.99,,2013-03-09 12:11:00,
2013-03-09 07:21:00,35.0,19.0,-100.00,WNW,300,5.0,10.0,51,-99.99,,,-99.99,,2013-03-09 12:21:00,
2013-03-09 07:32:00,36.0,19.0,-100.00,WNW,285,4.0,12.0,50,-99.99,,,-99.99,,2013-03-09 12:32:00,
2013-03-09 07:42:00,37.0,20.0,-100.00,WNW,290,6.0,12.0,49,-99.99,,,-99.99,,2013-03-09 12:42:00,
2013-03-09 07:52:00,37.0,20.0,-100.00,WNW,290,6.0,12.0,49,-99.99,,,-99.99,,2013-03-09 12:52:00,
2013-03-09 08:02:00,38.0,20.0,-100.00,NW,305,6.0,11.0,48,-99.99,,,-99.99,,2013-03-09 13:02:00,
2013-03-09 08:11:00,38.0,20.0,-100.00,WNW,285,4.0,11.0,48,-99.99,,,-99.99,,2013-03-09 13:11:00,
2013-03-09 08:21:00,38.0,20.0,-100.00,WNW,285,4.0,11.0,48,-99.99,,,-99.99,,2013-03-09 13:21:00,
2013-03-09 08:32:00,40.0,21.0,-100.00,WNW,290,5.0,11.0,47,-99.99,,,-99.99,,2013-03-09 13:32:00,
2013-03-09 08:42:00,40.0,21.0,-100.00,WNW,285,6.0,12.0,46,-99.99,,,-99.99,,2013-03-09 13:42:00,
2013-03-09 08:52:00,40.0,21.0,-100.00,WNW,285,6.0,12.0,46,-99.99,,,-99.99,,2013-03-09 13:52:00,
2013-03-09 09:01:00,41.0,21.0,-100.00,WNW,290,6.0,15.0,44,-99.99,,,-99.99,,2013-03-09 14:01:00,
2013-03-09 09:11:00,42.0,21.0,-100.00,WNW,300,4.0,12.0,43,-99.99,,,-99.99,,2013-03-09 14:11:00,
2013-03-09 09:21:00,42.0,21.0,-100.00,WNW,300,4.0,12.0,43,-99.99,,,-99.99,,2013-03-09 14:21:00,
2013-03-09 09:32:00,44.0,22.0,-100.00,WNW,290,6.0,10.0,41,-99.99,,,-99.99,,2013-03-09 14:32:00,
2013-03-09 09:42:00,45.0,22.0,-100.00,NW,310,4.0,9.0,40,-99.99,,,-99.99,,2013-03-09 14:42:00,
2013-03-09 09:52:00,45.0,22.0,-100.00,NW,310,4.0,9.0,40,-99.99,,,-99.99,,2013-03-09 14:52:00,
2013-03-09 10:02:00,47.0,23.0,-100.00,West,280,4.0,13.0,38,-99.99,,,-99.99,,2013-03-09 15:02:00,
2013-03-09 10:12:00,47.0,23.0,-100.00,West,260,5.0,11.0,38,-99.99,,,-99.99,,2013-03-09 15:12:00,
2013-03-09 10:22:00,47.0,23.0,-100.00,West,260,5.0,11.0,38,-99.99,,,-99.99,,2013-03-09 15:22:00,
2013-03-09 10:32:00,49.0,23.0,-100.00,West,270,4.0,14.0,36,-99.99,,,-99.99,,2013-03-09 15:32:00,
2013-03-09 10:42:00,50.0,23.0,-100.00,WNW,285,4.0,9.0,35,-99.99,,,-99.99,,2013-03-09 15:42:00,
2013-03-09 10:52:00,50.0,23.0,-100.00,WNW,285,4.0,9.0,35,-99.99,,,-99.99,,2013-03-09 15:52:00,
2013-03-09 11:01:00,51.0,24.0,-100.00,WSW,255,6.0,11.0,34,-99.99,,,-99.99,,2013-03-09 16:01:00,
2013-03-09 11:11:00,53.0,25.0,-100.00,NW,320,4.0,11.0,33,-99.99,,,-99.99,,2013-03-09 16:11:00,
2013-03-09 11:21:00,53.0,25.0,-100.00,NW,320,4.0,11.0,33,-99.99,,,-99.99,,2013-03-09 16:21:00,
2013-03-09 11:32:00,54.0,24.0,-100.00,NNW,330,4.0,8.0,31,-99.99,,,-99.99,,2013-03-09 16:32:00,
2013-03-09 11:42:00,55.0,24.0,-100.00,NW,310,6.0,11.0,29,-99.99,,,-99.99,,2013-03-09 16:42:00,
2013-03-09 11:52:00,55.0,24.0,-100.00,NW,310,6.0,11.0,29,-99.99,,,-99.99,,2013-03-09 16:52:00,
2013-03-09 12:01:00,55.0,23.0,-100.00,NW,325,4.0,9.0,28,-99.99,,,-99.99,,2013-03-09 17:01:00,
2013-03-09 12:11:00,59.0,25.0,-100.00,North,350,4.0,9.0,27,-99.99,,,-99.99,,2013-03-09 17:11:00,
2013-03-09 12:22:00,59.0,25.0,-100.00,North,350,4.0,9.0,27,-99.99,,,-99.99,,2013-03-09 17:22:00,
2013-03-09 12:32:00,59.0,24.0,-100.00,North,0,2.0,8.0,26,-99.99,,,-99.99,,2013-03-09 17:32:00,
2013-03-09 12:42:00,60.0,23.0,-100.00,NW,325,7.0,12.0,24,-99.99,,,-99.99,,2013-03-09 17:42:00,
2013-03-09 12:52:00,60.0,23.0,-100.00,NW,325,7.0,12.0,24,-99.99,,,-99.99,,2013-03-09 17:52:00,
2013-03-09 13:02:00,59.0,23.0,-100.00,South,170,1.0,12.0,24,-99.99,,,-99.99,,2013-03-09 18:02:00,
2013-03-09 13:11:00,61.0,23.0,-100.00,NNE,15,2.0,7.0,23,-99.99,,,-99.99,,2013-03-09 18:11:00,
2013-03-09 13:21:00,61.0,23.0,-100.00,NNE,15,2.0,7.0,23,-99.99,,,-99.99,,2013-03-09 18:21:00,
2013-03-09 13:32:00,60.0,22.0,-100.00,West,265,6.0,10.0,23,-99.99,,,-99.99,,2013-03-09 18:32:00,
2013-03-09 13:42:00,61.0,23.0,-100.00,North,0,2.0,9.0,23,-99.99,,,-99.99,,2013-03-09 18:42:00,
2013-03-09 13:52:00,61.0,23.0,-100.00,North,0,2.0,9.0,23,-99.99,,,-99.99,,2013-03-09 18:52:00,
2013-03-09 14:02:00,61.0,22.0,-100.00,West,280,4.0,9.0,22,-99.99,,,-99.99,,2013-03-09 19:02:00,
2013-03-09 14:12:00,62.0,23.0,-100.00,NE,35,1.0,11.0,22,-99.99,,,-99.99,,2013-03-09 19:12:00,
2013-03-09 14:22:00,62.0,23.0,-100.00,NE,35,1.0,11.0,22,-99.99,,,-99.99,,2013-03-09 19:22:00,
2013-03-09 14:32:00,63.0,23.0,-100.00,NW,315,2.0,7.0,21,-99.99,,,-99.99,,2013-03-09 19:32:00,
2013-03-09 14:42:00,64.0,23.0,-100.00,NNE,25,3.0,7.0,21,-99.99,,,-99.99,,2013-03-09 19:42:00,
2013-03-09 14:52:00,64.0,23.0,-100.00,NNE,25,3.0,7.0,21,-99.99,,,-99.99,,2013-03-09 19:52:00,
2013-03-09 15:02:00,63.0,22.0,-100.00,East,90,2.0,7.0,20,-99.99,,,-99.99,,2013-03-09 20:02:00,
2013-03-09 15:11:00,63.0,22.0,-100.00,West,260,1.0,6.0,20,-99.99,,,-99.99,,2013-03-09 20:11:00,
2013-03-09 15:22:00,63.0,22.0,-100.00,West,260,1.0,6.0,20,-99.99,,,-99.99,,2013-03-09 20:22:00,
2013-03-09 15:32:00,64.0,22.0,-100.00,NW,320,4.0,9.0,20,-99.99,,,-99.99,,2013-03-09 20:32:00,
2013-03-09 15:42:00,64.0,22.0,-100.00,NW,305,3.0,6.0,20,-99.99,,,-99.99,,2013-03-09 20:42:00,
2013-03-09 15:52:00,64.0,22.0,-100.00,NW,305,3.0,6.0,20,-99.99,,,-99.99,,2013-03-09 20:52:00,
2013-03-09 16:02:00,64.0,22.0,-100.00,SSW,200,2.0,6.0,20,-99.99,,,-99.99,,2013-03-09 21:02:00,
2013-03-09 16:12:00,64.0,22.0,-100.00,West,275,4.0,8.0,20,-99.99,,,-99.99,,2013-03-09 21:12:00,
2013-03-09 16:22:00,64.0,22.0,-100.00,West,275,4.0,8.0,20,-99.99,,,-99.99,,2013-03-09 21:22:00,
2013-03-09 16:32:00,65.0,21.0,-100.00,SW,215,0.0,7.0,19,-99.99,,,-99.99,,2013-03-09 21:32:00,
2013-03-09 16:42:00,64.0,21.0,-100.00,West,280,4.0,9.0,19,-99.99,,,-99.99,,2013-03-09 21:42:00,
2013-03-09 16:52:00,64.0,21.0,-100.00,West,280,4.0,9.0,19,-99.99,,,-99.99,,2013-03-09 21:52:00,
2013-03-09 17:01:00,63.0,20.0,-100.00,North,10,2.0,5.0,19,-99.99,,,-99.99,,2013-03-09 22:01:00,
2013-03-09 17:11:00,63.0,20.0,-100.00,North,0,3.0,6.0,19,-99.99,,,-99.99,,2013-03-09 22:11:00,
2013-03-09 17:21:00,63.0,20.0,-100.00,North,0,3.0,6.0,19,-99.99,,,-99.99,,2013-03-09 22:21:00,
2013-03-09 17:32:00,62.0,19.0,-100.00,North,10,2.0,6.0,19,-99.99,,,-99.99,,2013-03-09 22:32:00,
2013-03-09 17:42:00,60.0,18.0,-100.00,NNW,335,2.0,4.0,19,-99.99,,,-99.99,,2013-03-09 22:42:00,
2013-03-09 17:51:00,60.0,18.0,-100.00,NNW,335,2.0,4.0,19,-99.99,,,-99.99,,2013-03-09 22:51:00,
2013-03-09 18:01:00,59.0,18.0,-100.00,NW,320,2.0,4.0,20,-99.99,,,-99.99,,2013-03-09 23:01:00,
2013-03-09 18:11:00,59.0,18.0,-100.00,NW,315,2.0,4.0,20,-99.99,,,-99.99,,2013-03-09 23:11:00,
2013-03-09 18:21:00,59.0,18.0,-100.00,NW,315,2.0,4.0,20,-99.99,,,-99.99,,2013-03-09 23:21:00,
2013-03-09 18:32:00,56.0,18.0,-100.00,NW,305,1.0,2.0,22,-99.99,,,-99.99,,2013-03-09 23:32:00,
2013-03-09 18:42:00,54.0,17.0,-100.00,NW,310,1.0,3.0,23,-99.99,,,-99.99,,2013-03-09 23:42:00,
2013-03-09 18:52:00,54.0,17.0,-100.00,NW,310,1.0,3.0,23,-99.99,,,-99.99,,2013-03-09 23:52:00,
2013-03-09 19:02:00,54.0,18.0,-100.00,NW,315,1.0,2.0,24,-99.99,,,-99.99,,2013-03-10 00:02:00,
2013-03-09 19:11:00,53.0,18.0,-100.00,North,0,1.0,2.0,25,-99.99,,,-99.99,,2013-03-10 00:11:00,
2013-03-09 19:22:00,53.0,18.0,-100.00,North,0,1.0,2.0,25,-99.99,,,-99.99,,2013-03-10 00:22:00,
2013-03-09 19:32:00,51.0,17.0,-100.00,North,350,0.0,2.0,26,-99.99,,,-99.99,,2013-03-10 00:32:00,
2013-03-09 19:42:00,49.0,17.0,-100.00,SSE,150,1.0,2.0,28,-99.99,,,-99.99,,2013-03-10 00:42:00,
2013-03-09 19:52:00,49.0,17.0,-100.00,SSE,150,1.0,2.0,28,-99.99,,,-99.99,,2013-03-10 00:52:00,
2013-03-09 20:01:00,48.0,17.0,-100.00,SE,135,1.0,2.0,29,-99.99,,,-99.99,,2013-03-10 01:01:00,
2013-03-09 20:11:00,47.0,18.0,-100.00,NW,325,0.0,2.0,31,-99.99,,,-99.99,,2013-03-10 01:11:00,
2013-03-09 20:21:00,47.0,18.0,-100.00,NW,325,0.0,2.0,31,-99.99,,,-99.99,,2013-03-10 01:21:00,
2013-03-09 20:32:00,45.0,18.0,-100.00,SE,145,1.0,2.0,33,-99.99,,,-99.99,,2013-03-10 01:32:00,
2013-03-09 20:42:00,45.0,18.0,-100.00,SSE,155,2.0,4.0,34,-99.99,,,-99.99,,2013-03-10 01:42:00,
2013-03-09 20:52:00,45.0,18.0,-100.00,SSE,155,2.0,4.0,34,-99.99,,,-99.99,,2013-03-10 01:52:00,
2013-03-09 21:01:00,44.0,18.0,-100.00,SSE,165,2.0,3.0,35,-99.99,,,-99.99,,2013-03-10 02:01:00,
2013-03-09 21:11:00,44.0,18.0,-100.00,SSE,160,2.0,3.0,35,-99.99,,,-99.99,,2013-03-10 02:11:00,
2013-03-09 21:22:00,44.0,18.0,-100.00,SSE,160,2.0,3.0,35,-99.99,,,-99.99,,2013-03-10 02:22:00,
2013-03-09 21:32:00,42.0,18.0,-100.00,SSE,160,3.0,4.0,37,-99.99,,,-99.99,,2013-03-10 02:32:00,
2013-03-09 21:42:00,42.0,18.0,-100.00,South,170,3.0,4.0,38,-99.99,,,-99.99,,2013-03-10 02:42:00,
2013-03-09 21:52:00,42.0,18.0,-100.00,South,170,3.0,4.0,38,-99.99,,,-99.99,,2013-03-10 02:52:00,
2013-03-09 22:02:00,42.0,19.0,-100.00,SSE,165,3.0,5.0,40,-99.99,,,-99.99,,2013-03-10 03:02:00,
2013-03-09 22:11:00,41.0,19.0,-100.00,South,175,2.0,5.0,41,-99.99,,,-99.99,,2013-03-10 03:11:00,
2013-03-09 22:22:00,41.0,19.0,-100.00,South,175,2.0,5.0,41,-99.99,,,-99.99,,2013-03-10 03:22:00,
2013-03-09 22:32:00,41.0,20.0,-100.00,SSE,155,2.0,4.0,42,-99.99,,,-99.99,,2013-03-10 03:32:00,
2013-03-09 22:42:00,41.0,19.0,-100.00,South,170,2.0,4.0,42,-99.99,,,-99.99,,2013-03-10 03:42:00,
2013-03-09 22:52:00,41.0,19.0,-100.00,South,170,2.0,4.0,42,-99.99,,,-99.99,,2013-03-10 03:52:00,
2013-03-09 23:01:00,40.0,20.0,-100.00,South,170,2.0,3.0,44,-99.99,,,-99.99,,2013-03-10 04:01:00,
2013-03-09 23:11:00,40.0,20.0,-100.00,SSE,150,3.0,3.0,44,-99.99,,,-99.99,,2013-03-10 04:11:00,
2013-03-09 23:21:00,40.0,20.0,-100.00,SSE,150,3.0,3.0,44,-99.99,,,-99.99,,2013-03-10 04:21:00,
2013-03-09 23:32:00,39.0,20.0,-100.00,SSE,150,2.0,3.0,45,-99.99,,,-99.99,,2013-03-10 04:32:00,
2013-03-09 23:42:00,39.0,20.0,-100.00,SSE,150,1.0,2.0,46,-99.99,,,-99.99,,2013-03-10 04:42:00,
2013-03-09 23:52:00,39.0,20.0,-100.00,SSE,150,1.0,2.0,46,-99.99,,,-99.99,,2013-03-10 04:52:00,